sat.trackr.live / text

‹ back to catalog

STARLINK-31223

NORAD 58865 · 2024-019N

PAYLOAD ACTIVE UNKNOWN

§ Identity

Operator
Country
US
Launch date
2024-01-29
Launch site
AFETR
Launch vehicle
Mass (kg)
RCS (m²)

Purposes: comms

External: N2YO · Heavens-Above · Gunter

§ Orbital elements

Epoch: 2026-09-20T08:30:31.020480Z

Period
94.27 min
Inclination
43.0022°
Eccentricity
0.0000908
Mean motion
15.27578431 rev/d
Perigee alt
482.4 km
Apogee alt
483.7 km
Semi-major
6,861.2 km
B*
3.0530e-5
RAAN
229.5858°
Arg perigee
281.8904°
Mean anomaly
78.1845°
Rev number
14,883

§ Raw data

STARLINK-312231 58865U 24019N   26263.35452570  .00000578  00000+0  30530-4 0  99922 58865  43.0022 229.5858 0000908 281.8904  78.1845 15.27578431148833

JSON: /api/v1/satellites/58865 · /tle

For live sub-satellite position, see the globe view (requires WebGL).

§ Visibility from observer

Set your observer location to see the next 7 days of passes ≥ 10°. The values pass through the URL so the page stays shareable.

No JS? Fill the form by hand. The geolocation button needs JavaScript.